TimeMDT,TemperatureF,Dew PointF,Humidity,Sea Level PressureIn,VisibilityMPH,Wind Direction,Wind SpeedMPH,Gust SpeedMPH,PrecipitationIn,Events,Conditions,WindDirDegrees,DateUTC
12:15 AM,30.2,28.4,93,30.22,10.0,WNW,4.6,-,N/A,,Clear,290,2013-03-15 06:15:00
12:35 AM,30.2,28.4,93,30.22,10.0,West,3.5,-,N/A,,Clear,280,2013-03-15 06:35:00
12:55 AM,30.2,28.4,93,30.21,10.0,NW,4.6,-,N/A,,Clear,310,2013-03-15 06:55:00
1:15 AM,30.2,28.4,93,30.21,10.0,NW,4.6,-,N/A,,Clear,310,2013-03-15 07:15:00
1:35 AM,30.2,28.4,93,30.20,10.0,NW,5.8,-,N/A,,Clear,320,2013-03-15 07:35:00
1:55 AM,28.4,26.6,93,30.19,10.0,NW,5.8,-,N/A,,Clear,310,2013-03-15 07:55:00
2:15 AM,28.4,26.6,93,30.19,10.0,NW,5.8,-,N/A,,Clear,310,2013-03-15 08:15:00
2:35 AM,28.4,26.6,93,30.19,10.0,West,5.8,-,N/A,,Clear,280,2013-03-15 08:35:00
3:15 AM,28.4,26.6,93,30.19,10.0,WNW,5.8,-,N/A,,Clear,290,2013-03-15 09:15:00
3:35 AM,26.6,24.8,93,30.18,10.0,WNW,4.6,-,N/A,,Clear,300,2013-03-15 09:35:00
3:55 AM,28.4,24.8,86,30.17,10.0,WNW,4.6,-,N/A,,Clear,290,2013-03-15 09:55:00
4:15 AM,28.4,24.8,86,30.16,10.0,WNW,5.8,-,N/A,,Clear,290,2013-03-15 10:15:00
4:35 AM,28.4,24.8,86,30.15,10.0,NNW,4.6,-,N/A,,Scattered Clouds,330,2013-03-15 10:35:00
4:55 AM,28.4,24.8,86,30.16,10.0,WNW,5.8,-,N/A,,Scattered Clouds,290,2013-03-15 10:55:00
5:15 AM,26.6,23.0,86,30.16,10.0,WNW,5.8,-,N/A,,Clear,300,2013-03-15 11:15:00
5:35 AM,28.4,24.8,86,30.16,10.0,NNW,4.6,-,N/A,,Clear,330,2013-03-15 11:35:00
5:55 AM,26.6,23.0,86,30.16,10.0,WNW,4.6,-,N/A,,Clear,290,2013-03-15 11:55:00
6:15 AM,24.8,23.0,93,30.16,10.0,West,5.8,-,N/A,,Clear,270,2013-03-15 12:15:00
6:35 AM,26.6,23.0,86,30.16,10.0,WNW,4.6,-,N/A,,Clear,300,2013-03-15 12:35:00
6:55 AM,24.8,23.0,93,30.15,10.0,NW,5.8,-,N/A,,Clear,320,2013-03-15 12:55:00
7:15 AM,23.0,23.0,100,30.15,10.0,WNW,4.6,-,N/A,,Clear,300,2013-03-15 13:15:00
7:35 AM,26.6,23.0,86,30.16,10.0,NNW,6.9,-,N/A,,Clear,330,2013-03-15 13:35:00
7:55 AM,23.0,23.0,100,30.16,10.0,West,5.8,-,N/A,,Clear,270,2013-03-15 13:55:00
8:15 AM,24.8,23.0,93,30.16,10.0,West,6.9,-,N/A,,Clear,280,2013-03-15 14:15:00
8:35 AM,28.4,26.6,93,30.16,10.0,NNW,3.5,-,N/A,,Scattered Clouds,330,2013-03-15 14:35:00
9:55 AM,39.2,28.4,65,30.15,10.0,NW,3.5,-,N/A,,Clear,310,2013-03-15 15:55:00
10:15 AM,42.8,28.4,57,30.15,10.0,NW,4.6,-,N/A,,Clear,310,2013-03-15 16:15:00
10:35 AM,44.6,28.4,53,30.15,10.0,WNW,3.5,-,N/A,,Clear,300,2013-03-15 16:35:00
10:55 AM,48.2,23.0,37,30.14,10.0,Calm,Calm,-,N/A,,Clear,0,2013-03-15 16:55:00
11:15 AM,48.2,23.0,37,30.14,10.0,NW,8.1,-,N/A,,Clear,310,2013-03-15 17:15:00
11:35 AM,50.0,23.0,35,30.14,10.0,NW,6.9,-,N/A,,Clear,310,2013-03-15 17:35:00
11:55 AM,50.0,23.0,35,30.13,10.0,WNW,9.2,-,N/A,,Clear,290,2013-03-15 17:55:00
12:15 PM,50.0,23.0,35,30.13,10.0,WNW,4.6,-,N/A,,Clear,290,2013-03-15 18:15:00
12:35 PM,51.8,23.0,33,30.12,10.0,WNW,16.1,-,N/A,,Clear,300,2013-03-15 18:35:00
12:55 PM,51.8,23.0,33,30.11,10.0,WNW,13.8,-,N/A,,Clear,300,2013-03-15 18:55:00
1:15 PM,53.6,23.0,30,30.11,10.0,WNW,12.7,19.6,N/A,,Clear,290,2013-03-15 19:15:00
1:35 PM,53.6,23.0,30,30.10,10.0,WNW,18.4,21.9,N/A,,Clear,290,2013-03-15 19:35:00
1:55 PM,53.6,21.2,28,30.09,10.0,WNW,19.6,26.5,N/A,,Clear,290,2013-03-15 19:55:00
2:15 PM,53.6,21.2,28,30.09,10.0,West,19.6,26.5,N/A,,Clear,270,2013-03-15 20:15:00
2:35 PM,53.6,21.2,28,30.08,10.0,West,19.6,25.3,N/A,,Clear,270,2013-03-15 20:35:00
2:55 PM,53.6,21.2,28,30.07,10.0,WNW,17.3,24.2,N/A,,Clear,290,2013-03-15 20:55:00
3:15 PM,53.6,21.2,28,30.07,10.0,WNW,16.1,24.2,N/A,,Clear,290,2013-03-15 21:15:00
3:35 PM,53.6,21.2,28,30.06,10.0,WNW,15.0,20.7,N/A,,Clear,290,2013-03-15 21:35:00
3:55 PM,51.8,21.2,30,30.06,10.0,WNW,10.4,17.3,N/A,,Clear,300,2013-03-15 21:55:00
4:15 PM,53.6,21.2,28,30.05,10.0,NW,16.1,23.0,N/A,,Scattered Clouds,320,2013-03-15 22:15:00
4:35 PM,53.6,23.0,30,30.05,10.0,NNW,16.1,24.2,N/A,,Scattered Clouds,330,2013-03-15 22:35:00
4:55 PM,51.8,23.0,33,30.06,10.0,NW,16.1,-,N/A,,Scattered Clouds,310,2013-03-15 22:55:00
5:15 PM,51.8,21.2,30,30.06,10.0,WNW,20.7,-,N/A,,Clear,300,2013-03-15 23:15:00
5:35 PM,50.0,21.2,32,30.06,10.0,NW,15.0,20.7,N/A,,Clear,310,2013-03-15 23:35:00
5:55 PM,50.0,21.2,32,30.06,10.0,West,15.0,19.6,N/A,,Clear,280,2013-03-15 23:55:00
6:15 PM,48.2,23.0,37,30.06,10.0,WNW,16.1,-,N/A,,Scattered Clouds,290,2013-03-16 00:15:00
6:35 PM,46.4,21.2,37,30.06,10.0,West,15.0,21.9,N/A,,Scattered Clouds,280,2013-03-16 00:35:00
6:55 PM,44.6,23.0,43,30.07,10.0,West,12.7,-,N/A,,Scattered Clouds,280,2013-03-16 00:55:00
7:15 PM,44.6,23.0,43,30.07,10.0,West,10.4,18.4,N/A,,Clear,280,2013-03-16 01:15:00
7:35 PM,41.0,26.6,57,30.08,10.0,West,8.1,-,N/A,,Clear,280,2013-03-16 01:35:00
7:55 PM,39.2,24.8,56,30.08,10.0,WNW,6.9,-,N/A,,Clear,290,2013-03-16 01:55:00
8:15 PM,35.6,26.6,70,30.08,10.0,WNW,4.6,-,N/A,,Clear,300,2013-03-16 02:15:00
8:35 PM,33.8,26.6,75,30.08,10.0,NNW,6.9,-,N/A,,Clear,330,2013-03-16 02:35:00
8:55 PM,32.0,26.6,80,30.08,10.0,NW,6.9,-,N/A,,Clear,320,2013-03-16 02:55:00
9:15 PM,32.0,24.8,75,30.08,10.0,Calm,Calm,-,N/A,,Clear,0,2013-03-16 03:15:00
9:35 PM,32.0,24.8,75,30.08,10.0,WNW,5.8,-,N/A,,Clear,290,2013-03-16 03:35:00
9:55 PM,30.2,24.8,80,30.08,10.0,Calm,Calm,-,N/A,,Clear,0,2013-03-16 03:55:00
10:15 PM,32.0,26.6,80,30.08,10.0,Calm,Calm,-,N/A,,Mostly Cloudy,0,2013-03-16 04:15:00
10:35 PM,32.0,24.8,75,30.08,10.0,NNW,3.5,-,N/A,,Overcast,340,2013-03-16 04:35:00
10:55 PM,28.4,24.8,86,30.08,10.0,West,4.6,-,N/A,,Mostly Cloudy,270,2013-03-16 04:55:00
11:15 PM,26.6,24.8,93,30.07,10.0,WNW,4.6,-,N/A,,Scattered Clouds,290,2013-03-16 05:15:00
11:35 PM,28.4,24.8,86,30.08,10.0,WNW,4.6,-,N/A,,Clear,300,2013-03-16 05:35:00
11:55 PM,30.2,24.8,80,30.07,10.0,North,4.6,-,N/A,,Clear,360,2013-03-16 05:55:00